{"data":{"norad_id":58189,"intl_designator":"2023-167Q","name":"STARLINK-30796","alt_names":[],"object_type":"PAYLOAD","status":"ACTIVE","operator":null,"country":"US","launch_date":"2023-10-30","launch_site_code":"AFETR","launch_vehicle":null,"mission":null,"orbit_class":"UNKNOWN","rcs_meters":null,"size_class":null,"mass_kg":null,"dimensions":null,"purposes":["comms"],"wikipedia_slug":null,"has_3d_model":false,"image_url":null,"decayed_at":null,"tle_current":{"epoch":"2026-05-25T03:49:13.023264Z","epoch_age_seconds":57324,"freshness":"FRESH","line1":"1 58189U 23167Q   26145.15917851  .00001358  00000+0  58892-4 0  9997","line2":"2 58189  43.0016  71.2320 0001046 241.2407 118.8339 15.27571500142680","mean_motion":15.275715,"eccentricity":0.0001046,"inclination_deg":43.0016,"raan_deg":71.232,"arg_perigee_deg":241.2407,"mean_anomaly_deg":118.8339,"bstar":5.8892e-5,"rev_number":14268,"period_min":94.267273250385,"perigee_km":482.35686548759,"apogee_km":483.79223094348,"semimajor_km":6861.2115482155,"source":"CELESTRAK","updated_at":"2026-05-25T13:38:18.571686Z"}}}